Location: Marcé
(47.5801°N, 0.3280°W)
Time: 17:45:58
(UTC+01:00)

Tiros 1 - Pass Details

Date: 01 December 2021
Orbit: 629 x 664 km, 48.4° (Epoch: 26 January)

Event Time Altitude Azimuth Distance (km) Brightness Sun altitude
Rises 21:51:43 0° 251° (WSW) 2,929 - -46.1°
Reaches altitude 10° 21:54:01 10° 250° (WSW) 2,027 - -46.5°
Maximum altitude 21:58:42 80° 164° (SSE) 658 - -47.2°
Drops below altitude 10° 22:03:26 10° 78° (ENE) 2,055 - -47.9°
Sets 22:05:48 0° 77° (ENE) 2,972 - -48.3°
